Location: Aufkirchen
(47.9603°N, 11.3653°E)
Time: 07:48:13
(UTC+01:00)

Transit 2A - Pass Details

Date: 04 December 2020
Orbit: 599 x 960 km, 66.7° (Epoch: 25 January)

Event Time Altitude Azimuth Distance (km) Brightness Sun altitude
Rises 02:17:57 0° 315° (NW) 3,233 - -53.1°
Reaches altitude 10° 02:20:58 10° 299° (WNW) 2,231 - -52.7°
Maximum altitude 02:24:36 20° 253° (WSW) 1,565 - -52.1°
Drops below altitude 10° 02:28:00 10° 206° (SSW) 2,067 - -51.6°
Sets 02:30:41 0° 189° (S) 2,923 - -51.2°
